Date String (YYYY-MM-DD hh:mm:ss) UTC,Instrument flags,absolute air pressure of the measurement (hPa),sample flow rate (lpm),inlet stack bypass flow (lpm),air temperature of the measurement (°C),ambient temperature measured by the external sensor (°C),aerosol sample conditioner tube jacket temperature (°C),OPC LED temperature (°C),internal box temperature (°C),relative humidity of the measurement (%),span deviation,mass concentration of particles derived from Lorenz-Mie calculation of OPC scattering (μg/m³),mass concentration of particles derived from Lorenz-Mie calculation of OPC scattering (μg/m³),mass concentration of particles derived from Lorenz-Mie calculation of OPC scattering (μg/m³)
DateTimeUTC,F1_M11,P_M11,Q1_M11,Q2_M11,T1_M11,T2_M11,T3_M11,T4_M11,T5_M11,U1_M11,ZSPAN_M11,X2_M11,X0_M11,X1_M11
2023-06-26 19:00:00,SystemResetWarning,0830.3,5.00,000.00,031.2,025.7,000.0,038.9,030.9,33.2,0000.0,0007.08,0018.87,0005.72
2023-06-26 19:01:00,SystemResetWarning,0830.3,4.99,000.00,031.2,026.1,000.0,039.0,030.9,33.6,0000.0,0007.09,0019.93,0005.65
2023-06-26 19:02:00,SystemResetWarning,0830.3,5.01,000.00,031.1,026.6,000.0,039.0,031.0,33.6,0000.4,0007.14,0020.47,0005.59
2023-06-26 19:03:00,SystemResetWarning,0830.3,5.00,000.00,031.1,026.9,000.0,039.0,031.1,32.7,0000.0,0007.19,0021.39,0005.55
2023-06-26 19:04:00,SystemResetWarning,0830.3,4.99,000.00,031.1,027.2,000.0,039.0,031.2,32.7,0002.6,0007.14,0022.56,0005.50
2023-06-26 19:05:00,SystemResetWarning,0830.2,4.99,000.00,031.1,027.5,000.0,039.1,031.3,33.7,0003.4,0007.13,0022.89,0005.48
2023-06-26 19:06:00,SystemResetWarning,0830.2,5.02,000.00,031.1,027.7,000.0,039.1,031.3,33.9,0003.8,0007.20,0023.21,0005.47
2023-06-26 19:07:00,SystemResetWarning,0830.2,5.00,000.00,031.1,027.2,000.0,039.1,031.4,34.0,0001.2,0007.21,0023.97,0005.46
2023-06-26 19:08:00,SystemResetWarning,0830.2,4.98,000.00,031.1,025.7,000.0,039.0,031.4,33.8,0000.0,0007.25,0024.24,0005.45
2023-06-26 19:09:00,SystemResetWarning,0830.3,5.02,000.00,031.1,025.4,000.0,039.0,031.4,33.6,0001.6,0007.31,0025.01,0005.45
2023-06-26 19:10:00,SystemResetWarning,0830.3,5.00,000.00,030.9,025.6,000.0,039.0,031.1,33.8,0002.2,0007.32,0025.44,0005.43
2023-06-26 19:11:00,SystemResetWarning,0830.2,4.99,000.00,030.8,026.0,000.0,039.0,031.0,33.7,0003.8,0007.31,0023.14,0005.44
2023-06-26 19:12:00,SystemResetWarning,0830.2,5.00,000.00,030.8,026.4,000.0,039.0,031.0,34.0,0003.8,0007.34,0023.07,0005.47
2023-06-26 19:13:00,SystemResetWarning,0830.2,5.01,000.00,030.7,026.8,000.0,039.0,031.1,34.3,0004.1,0007.37,0023.03,0005.52
2023-06-26 19:14:00,SystemResetWarning,0830.2,4.98,000.00,030.7,027.1,000.0,039.0,031.2,35.5,0004.0,0007.36,0021.83,0005.54
2023-06-26 19:15:00,SystemResetWarning,0830.3,5.03,000.00,030.8,027.4,000.0,039.0,031.3,34.9,0003.5,0007.39,0019.90,0005.59
2023-06-26 19:16:00,SystemResetWarning,0830.3,4.97,000.00,031.0,027.1,000.0,038.9,031.4,34.3,0003.1,0007.41,0019.51,0005.63
2023-06-26 19:17:00,SystemResetWarning,0830.3,5.00,000.00,031.1,025.6,000.0,038.9,031.5,33.4,0003.0,0007.41,0019.21,0005.67
2023-06-26 19:18:00,SystemResetWarning,0830.4,5.00,000.00,031.2,025.3,000.0,038.8,031.5,33.8,0002.8,0007.51,0019.15,0005.73
2023-06-26 19:19:00,SystemResetWarning,0830.3,4.99,000.00,031.1,025.5,000.0,038.8,031.2,34.4,0002.3,0007.55,0019.22,0005.81
2023-06-26 19:20:00,SystemResetWarning,0830.3,5.02,000.00,031.0,025.9,000.0,038.9,031.1,34.1,0002.3,0007.59,0018.99,0005.88
2023-06-26 19:21:00,SystemResetWarning,0830.3,4.99,000.00,031.0,026.3,000.0,038.9,031.1,33.5,0002.5,0007.70,0018.53,0005.98
2023-06-26 19:22:00,SystemResetWarning,0830.3,4.99,000.00,031.0,026.7,000.0,038.9,031.1,33.3,0002.9,0007.88,0019.69,0006.09
2023-06-26 19:23:00,SystemResetWarning,0830.3,5.01,000.00,031.0,027.1,000.0,039.0,031.2,34.0,0002.8,0008.02,0019.56,0006.19
2023-06-26 19:24:00,SystemResetWarning,0830.3,5.01,000.00,031.0,027.4,000.0,039.0,031.3,33.1,0002.4,0008.01,0021.52,0006.25
2023-06-26 19:25:00,SystemResetWarning,0830.3,5.00,000.00,031.0,027.2,000.0,039.0,031.4,33.8,0002.3,0008.10,0022.39,0006.33
2023-06-26 19:26:00,SystemResetWarning,0830.3,4.98,000.00,031.0,025.5,000.0,038.9,031.4,34.5,0002.4,0008.23,0024.21,0006.41
2023-06-26 19:27:00,SystemResetWarning,0830.3,5.02,000.00,030.9,024.5,000.0,038.9,031.3,33.5,0002.6,0008.31,0024.55,0006.50
2023-06-26 19:28:00,SystemResetWarning,0830.3,4.99,000.00,030.9,024.5,000.0,038.8,031.1,34.3,0002.7,0008.33,0025.55,0006.58
2023-06-26 19:29:00,SystemResetWarning,0830.3,5.00,000.00,030.7,024.9,000.0,038.8,030.8,34.7,0002.7,0008.37,0026.24,0006.66
2023-06-26 19:30:00,SystemResetWarning,0830.3,5.01,000.00,030.7,025.4,000.0,038.8,030.8,34.8,0003.1,0008.46,0026.21,0006.73
2023-06-26 19:31:00,SystemResetWarning,0830.3,5.00,000.00,030.7,025.9,000.0,038.8,030.9,34.1,0002.9,0008.44,0027.35,0006.76
2023-06-26 19:32:00,SystemResetWarning,0830.3,4.99,000.00,030.7,026.4,000.0,038.8,031.0,34.0,0002.8,0008.39,0027.83,0006.75
2023-06-26 19:33:00,SystemResetWarning,0830.3,5.01,000.00,030.7,026.8,000.0,038.8,031.1,33.8,0002.6,0008.32,0027.64,0006.73
2023-06-26 19:34:00,SystemResetWarning,0830.3,5.00,000.00,030.7,027.1,000.0,038.8,031.1,33.7,0002.6,0008.22,0028.75,0006.71
2023-06-26 19:35:00,SystemResetWarning,0830.3,5.00,000.00,030.7,027.4,000.0,038.8,031.2,33.3,0002.6,0008.23,0027.10,0006.71
2023-06-26 19:36:00,SystemResetWarning,0830.3,5.00,000.00,030.7,027.6,000.0,038.8,031.3,33.7,0002.5,0008.21,0026.36,0006.72
2023-06-26 19:37:00,SystemResetWarning,0830.3,4.97,000.00,030.8,026.9,000.0,038.8,031.4,34.7,0002.5,0008.13,0025.91,0006.68
2023-06-26 19:38:00,SystemResetWarning,0830.2,5.04,000.00,030.9,025.5,000.0,038.8,031.4,35.2,0002.5,0008.09,0025.11,0006.65
2023-06-26 19:39:00,SystemResetWarning,0830.2,4.99,000.00,031.0,025.3,000.0,038.7,031.4,34.2,0002.2,0008.13,0025.10,0006.63
2023-06-26 19:40:00,SystemResetWarning,0830.2,4.99,000.00,031.0,025.5,000.0,038.8,031.1,32.4,0002.1,0008.12,0023.55,0006.61
2023-06-26 19:41:00,SystemResetWarning,0830.2,5.00,000.00,031.0,025.9,000.0,038.8,031.1,31.9,0002.1,0008.09,0023.81,0006.60
2023-06-26 19:42:00,SystemResetWarning,0830.2,5.00,000.00,031.0,026.4,000.0,038.8,031.1,32.5,0001.9,0008.14,0022.77,0006.58
2023-06-26 19:43:00,SystemResetWarning,0830.3,5.00,000.00,031.0,026.8,000.0,038.9,031.2,32.8,0002.0,0008.18,0021.76,0006.57
2023-06-26 19:44:00,SystemResetWarning,0830.3,5.00,000.00,031.0,027.1,000.0,038.9,031.2,33.5,0002.0,0008.18,0021.02,0006.56
2023-06-26 19:45:00,SystemResetWarning,0830.2,5.00,000.00,031.0,027.4,000.0,039.0,031.3,32.5,0002.0,0008.18,0019.72,0006.55
2023-06-26 19:46:00,SystemResetWarning,0830.2,4.99,000.00,031.1,027.5,000.0,039.0,031.4,32.4,0001.9,0008.20,0020.10,0006.55
2023-06-26 19:47:00,SystemResetWarning,0830.2,4.98,000.00,031.1,026.1,000.0,039.0,031.4,31.5,0002.0,0008.23,0020.44,0006.56
2023-06-26 19:48:00,SystemResetWarning,0830.1,5.01,000.00,031.1,024.6,000.0,038.9,031.4,32.6,0002.3,0008.24,0020.26,0006.58
2023-06-26 19:49:00,SystemResetWarning,0830.1,5.00,000.00,031.0,024.5,000.0,038.9,031.3,33.7,0002.4,0008.22,0020.90,0006.56
2023-06-26 19:50:00,SystemResetWarning,0830.0,5.01,000.00,030.9,024.8,000.0,038.9,030.9,34.1,0002.9,0008.11,0020.95,0006.50
2023-06-26 19:51:00,SystemResetWarning,0830.0,4.99,000.00,030.8,025.3,000.0,038.9,030.8,33.7,0003.2,0008.08,0020.79,0006.47
2023-06-26 19:52:00,SystemResetWarning,0830.0,5.00,000.00,030.8,025.8,000.0,038.9,030.9,32.7,0003.2,0008.10,0021.34,0006.44
2023-06-26 19:53:00,SystemResetWarning,0830.0,5.01,000.00,030.8,026.2,000.0,038.9,031.0,33.1,0003.2,0008.08,0022.70,0006.46
2023-06-26 19:54:00,SystemResetWarning,0830.0,4.99,000.00,030.7,026.7,000.0,038.9,031.1,32.1,0002.9,0008.05,0023.08,0006.47
2023-06-26 19:55:00,SystemResetWarning,0830.0,4.99,000.00,030.7,027.0,000.0,038.9,031.2,32.5,0002.9,0008.10,0025.20,0006.48
2023-06-26 19:56:00,SystemResetWarning,0830.0,5.01,000.00,030.7,027.3,000.0,038.9,031.2,33.5,0002.9,0008.04,0024.93,0006.48
2023-06-26 19:57:00,SystemResetWarning,0830.0,5.01,000.00,030.7,027.6,000.0,038.9,031.3,32.4,0002.8,0007.98,0024.99,0006.47
2023-06-26 19:58:00,SystemResetWarning,0830.0,4.98,000.00,030.7,027.4,000.0,038.9,031.4,33.4,0002.8,0007.95,0024.15,0006.48
2023-06-26 19:59:00,SystemResetWarning,0830.0,5.00,000.00,030.8,025.9,000.0,038.8,031.4,32.4,0002.7,0007.95,0023.78,0006.48
